Date,TemperatureHighF,TemperatureAvgF,TemperatureLowF,DewpointHighF,DewpointAvgF,DewpointLowF,HumidityHigh,HumidityAvg,HumidityLow,PressureMaxIn,PressureMinIn,WindSpeedMaxMPH,WindSpeedAvgMPH,GustSpeedMaxMPH,PrecipitationSumIn
2014-1-1,27,21,17,18,14,9,80,72,66,30.03,29.91,5,0,11,0.00
2014-1-2,18,12,0,10,4,-12,74,68,55,30.25,29.88,6,0,14,0.00
2014-1-3,19,7,-8,8,-4,-21,65,58,50,30.28,29.79,2,0,14,0.00
2014-1-4,37,30,19,25,18,8,72,60,51,29.80,29.71,0,0,0,0.01
2014-1-5,31,16,-5,26,9,-15,83,74,60,29.98,29.65,11,0,24,0.01
2014-1-6,-5,-11,-16,-15,-23,-28,60,52,51,30.19,29.98,0,0,0,0.00
2014-1-7,9,-1,-12,0,-11,-24,68,60,51,30.19,30.06,0,0,0,0.00
2014-1-8,18,11,1,11,3,-9,74,70,61,30.31,30.06,0,0,0,0.00
2014-1-9,27,15,10,22,8,2,83,74,68,30.30,30.04,0,0,0,0.00
2014-1-10,38,37,30,38,36,27,100,97,89,29.97,29.36,0,0,0,0.63
2014-1-11,40,36,32,40,32,25,100,87,73,29.62,29.31,0,0,0,0.04
2014-1-12,45,37,28,35,30,23,87,77,68,29.75,29.47,0,0,0,0.04
2014-1-13,49,39,28,37,32,23,85,75,61,29.66,29.40,0,0,0,0.00
2014-1-14,37,29,24,32,21,11,89,73,54,29.81,29.53,0,0,1,0.04
2014-1-15,24,19,16,14,7,3,70,60,52,29.96,29.73,0,0,0,0.00
2014-1-16,40,30,21,29,21,12,84,71,59,29.74,29.39,0,0,0,0.00
2014-1-17,24,12,7,16,1,-5,70,60,50,29.87,29.57,0,0,0,0.00
2014-1-18,26,18,10,20,11,0,81,72,62,29.83,29.47,0,0,0,0.00
2014-1-19,40,27,13,29,18,7,77,69,61,29.78,29.46,0,0,0,0.04
2014-1-20,39,33,23,30,26,18,85,74,65,29.77,29.48,0,0,0,0.00
2014-1-21,23,7,-2,18,-4,-14,83,60,42,30.14,29.77,0,0,0,0.00
2014-1-22,21,11,0,9,-1,-12,63,58,46,30.04,29.75,0,0,0,0.00
2014-1-23,7,1,-4,-11,-15,-20,50,45,39,30.47,30.31,0,0,0,0.00
2014-1-24,27,12,-5,22,-4,-18,82,49,31,30.43,29.44,0,0,0,0.00
2014-1-25,34,22,9,28,4,-16,84,49,21,29.76,29.36,0,0,0,0.02
2014-1-26,44,27,11,30,12,-11,69,53,30,29.77,29.31,0,0,0,0.09
2014-1-27,12,2,-3,-7,-18,-26,50,38,26,30.29,29.76,0,0,1,0.00
2014-1-28,13,2,-6,-10,-16,-22,49,41,29,30.30,30.10,0,0,0,0.00
2014-1-29,31,16,3,4,-5,-12,53,40,22,30.11,29.89,0,0,0,0.00
2014-1-30,36,28,18,28,12,0,86,54,22,29.90,29.54,0,0,0,0.00
2014-1-31,25,21,19,19,13,8,82,72,62,29.98,29.79,0,0,0,0.00
2014-2-1,33,28,23,31,24,18,90,86,81,29.92,29.63,0,0,0,0.13
2014-2-2,23,15,2,18,6,-7,83,69,60,30.14,29.91,0,0,0,0.00
2014-2-3,21,8,-3,7,-4,-14,64,58,45,30.22,30.10,0,0,0,0.00
2014-2-4,21,16,7,13,9,-4,78,70,60,30.19,29.80,0,0,0,0.00
2014-2-5,24,18,3,18,11,-6,84,75,62,30.31,29.75,0,0,0,0.00
2014-2-6,6,0,-7,-4,-13,-20,65,54,44,30.35,30.25,0,0,0,0.00
2014-2-7,16,1,-14,-2,-13,-26,59,50,40,30.29,30.16,0,0,0,0.00
2014-2-8,22,16,8,13,6,-4,74,65,57,30.17,29.94,0,0,0,0.00
2014-2-9,21,15,2,12,4,-12,75,62,49,30.14,29.93,0,0,0,0.00
2014-2-10,9,0,-7,-10,-16,-22,53,45,34,30.30,30.14,0,0,0,0.00
2014-2-11,14,-1,-11,-3,-16,-25,56,49,40,30.34,30.17,0,0,0,0.00
2014-2-12,32,8,-8,14,-4,-21,64,56,43,30.17,29.83,0,0,0,0.00
2014-2-13,38,21,-2,24,9,-12,75,60,32,29.85,29.45,0,0,0,0.04
2014-2-14,22,16,7,12,5,-4,71,62,56,29.79,29.51,0,0,0,0.00
2014-2-15,20,12,-5,14,0,-16,76,58,44,29.95,29.78,0,0,0,0.00
2014-2-16,27,19,7,16,9,-5,76,64,50,30.08,29.77,0,0,0,0.01
2014-2-17,34,27,15,29,21,8,85,77,68,30.06,29.54,0,0,0,0.00
2014-2-18,49,34,15,30,23,8,82,64,42,29.83,29.54,0,0,0,0.24
2014-2-19,43,36,30,30,27,24,82,70,57,29.83,29.54,0,0,0,0.00
2014-2-20,51,39,33,49,34,27,95,83,70,29.70,29.07,0,0,1,0.45
2014-2-21,42,36,30,28,23,14,84,61,42,29.71,29.36,6,0,17,0.00
2014-2-22,41,32,25,29,23,16,84,70,51,29.90,29.71,0,0,0,0.00
2014-2-23,32,25,21,16,11,6,62,54,45,30.12,29.88,0,0,0,0.00
2014-2-24,27,22,16,9,5,2,57,48,36,30.17,30.05,0,0,0,0.00
2014-2-25,26,19,8,10,5,-10,70,56,40,30.09,30.01,5,0,13,0.00
2014-2-26,18,12,1,1,-8,-14,54,42,24,30.11,29.60,4,0,11,0.00
2014-2-27,20,12,6,6,-10,-16,54,36,22,30.00,29.60,3,0,10,0.00
2014-2-28,38,23,6,20,6,-9,61,48,32,30.00,29.78,0,0,6,0.00
2014-3-1,33,26,15,22,15,7,75,63,51,30.13,29.82,0,0,0,0.00
2014-3-2,15,9,3,7,-4,-14,72,55,42,30.23,30.09,0,0,0,0.00
2014-3-3,16,7,-4,-3,-11,-22,53,43,33,30.32,30.14,0,0,0,0.00
2014-3-4,37,23,9,16,7,-6,73,52,30,30.16,29.97,0,0,0,0.04
2014-3-5,29,23,19,18,13,7,73,64,49,30.19,30.02,0,0,0,0.00
2014-3-6,37,26,17,22,15,7,78,63,49,30.18,29.90,0,0,0,0.00
2014-3-7,55,37,21,33,25,16,85,64,31,29.91,29.72,0,0,0,0.00
2014-3-8,38,33,28,30,26,21,83,76,69,30.10,29.79,0,0,0,0.00
2014-3-9,47,37,24,32,27,19,86,68,51,30.10,29.74,4,0,11,0.00
2014-3-10,60,46,36,43,35,27,81,65,48,29.74,29.53,0,0,0,0.00
2014-3-11,64,44,32,48,36,28,91,76,53,29.54,29.41,0,0,0,0.00
2014-3-12,37,30,23,32,23,15,90,75,60,29.95,29.35,2,0,10,0.45
2014-3-13,47,32,18,35,24,11,82,71,60,29.99,29.73,0,0,0,0.05
2014-3-14,60,48,36,39,33,26,77,58,38,29.78,29.52,5,0,11,0.00
2014-3-15,53,42,29,35,29,23,84,62,44,29.95,29.78,0,0,0,0.00
2014-3-16,32,27,21,24,12,2,74,53,34,30.05,29.92,0,0,0,0.00
2014-3-17,42,29,18,24,15,6,74,57,42,29.93,29.62,0,0,0,0.00
2014-3-18,53,40,28,39,32,20,85,72,55,29.69,29.42,0,0,1,0.00
2014-3-19,46,40,32,42,34,22,91,80,62,29.91,29.42,12,2,23,0.06
2014-3-20,54,41,26,35,29,20,84,65,39,29.91,29.79,3,0,8,0.00
2014-3-21,69,49,32,43,35,27,85,60,31,29.81,29.54,0,0,2,0.00
2014-3-22,46,39,32,36,28,23,82,66,49,30.09,29.74,0,0,0,0.00
2014-3-23,36,29,23,23,16,6,69,58,31,30.25,30.08,0,0,0,0.00
2014-3-24,38,27,22,18,12,6,76,55,27,30.19,29.94,0,0,0,0.00
2014-3-25,33,26,19,26,14,4,87,61,36,30.10,29.85,4,0,12,0.00
2014-3-26,45,27,14,20,11,4,71,52,24,30.17,29.85,0,0,0,0.00
2014-3-27,54,41,34,51,35,19,92,80,50,29.85,29.35,0,0,0,0.63
2014-3-28,54,42,39,51,37,35,89,81,70,29.99,29.37,8,0,17,0.00
2014-3-29,41,35,28,36,30,22,90,83,70,30.08,29.92,0,0,0,0.00
2014-3-30,60,42,24,37,29,20,91,62,33,30.09,29.89,0,0,0,0.00
2014-3-31,69,54,36,45,38,30,82,55,31,29.90,29.58,3,0,11,0.00
2014-4-1,57,46,32,45,31,20,76,55,37,29.92,29.59,9,0,14,0.02
2014-4-2,51,46,41,46,37,32,85,72,55,29.95,29.76,9,3,12,0.09
2014-4-3,50,46,42,50,45,39,100,97,85,29.77,29.41,11,4,15,1.13
2014-4-4,55,43,37,54,38,27,100,81,66,29.91,29.33,14,5,27,0.01
2014-4-5,55,43,30,32,27,22,74,56,33,30.05,29.91,8,1,17,0.00
2014-4-6,61,44,30,39,32,25,85,65,32,29.99,29.73,8,1,11,0.00
2014-4-7,52,46,38,40,36,33,82,68,50,29.73,29.46,8,2,11,0.01
2014-4-8,62,51,40,44,38,31,92,65,34,29.77,29.51,11,2,16,0.00
2014-4-9,65,51,36,39,30,18,80,50,16,29.89,29.74,8,2,14,0.00
2014-4-10,72,58,48,48,42,34,68,55,38,29.80,29.59,11,3,20,0.00
2014-4-11,73,57,39,38,25,10,73,37,10,29.90,29.79,6,1,11,0.00
2014-4-12,80,64,42,59,49,34,79,61,43,29.87,29.54,10,3,23,0.00
2014-4-13,70,65,61,65,59,56,96,83,70,29.62,29.31,13,3,24,0.26
2014-4-14,62,43,32,62,42,31,100,95,83,29.84,29.25,9,3,19,0.05
2014-4-15,44,34,28,32,23,14,100,66,33,30.04,29.84,8,2,12,0.06
2014-4-16,56,42,29,34,28,22,83,61,31,30.12,29.91,17,4,24,0.00
2014-4-17,65,50,35,42,36,28,84,61,38,30.10,29.96,6,2,11,0.00
2014-4-18,69,55,42,43,36,10,91,57,10,30.16,30.05,7,2,11,0.00
2014-4-19,76,56,34,41,32,22,83,47,14,30.16,30.01,8,3,14,0.00